| time (UTC) | temp C | wind direction | speed KPH | gust KPH | rain 1hr cm | rain 24hr cm | rain mn cm | humidity % | barometer mb |
| 20260505152914 | 19 | 150 | 8.0 | 16.1 | 0.00 | 0.00 | 0.00 | 83 | 1006.4 |
| 20260505152415 | 19 | 126 | 12.9 | 17.7 | 0.00 | 0.00 | 0.00 | 83 | 1006.1 |
| 20260505151914 | 18 | 130 | 6.4 | 17.7 | 0.00 | 0.00 | 0.00 | 84 | 1006.0 |
| 20260505151412 | 18 | 146 | 9.7 | 14.5 | 0.00 | 0.00 | 0.00 | 86 | 1005.9 |
| 20260505150914 | 18 | 148 | 4.8 | 8.0 | 0.00 | 0.00 | 0.00 | 85 | 1006.4 |
| 20260505150414 | 18 | 166 | 6.4 | 8.0 | 0.00 | 0.00 | 0.00 | 85 | 1006.5 |
| 20260505101915 | 15 | 0 | 0.0 | 4.8 | 0.00 | 0.00 | 0.00 | 99 | 1005.6 |
| 20260505101413 | 15 | 36 | 3.2 | 4.8 | 0.00 | 0.00 | 0.00 | 99 | 1005.7 |
| 20260505090412 | 15 | 145 | 4.8 | 4.8 | 0.00 | 0.00 | 0.00 | 99 | 1006.0 |
| 20260505085414 | 15 | 13 | 3.2 | 4.8 | 0.00 | 0.00 | 0.00 | 99 | 1006.8 |
| 20260505064411 | 15 | 332 | 0.0 | 3.2 | 0.00 | 0.00 | 0.00 | 92 | 1006.2 |
| 20260505063913 | 15 | 358 | 0.0 | 3.2 | 0.00 | 0.00 | 0.00 | 91 | 1006.2 |
| 20260505063411 | 16 | 333 | 0.0 | 3.2 | 0.00 | 0.00 | 0.00 | 90 | 1006.2 |
| 20260505062912 | 16 | 346 | 0.0 | 3.2 | 0.00 | 0.00 | 0.00 | 88 | 1006.3 |
| 20260505062412 | 16 | 0 | 0.0 | 0.0 | 0.00 | 0.00 | 0.00 | 87 | 1006.3 |
| 20260505061913 | 16 | 0 | 0.0 | 3.2 | 0.00 | 0.00 | 0.00 | 86 | 1006.4 |
| 20260505061412 | 16 | 0 | 0.0 | 1.6 | 0.00 | 0.00 | 0.00 | 85 | 1006.4 |
| 20260505060919 | 16 | 0 | 0.0 | 0.0 | 0.00 | 0.00 | 0.00 | 86 | 1006.6 |
| 20260505060411 | 16 | 0 | 0.0 | 1.6 | 0.00 | 0.00 | 0.00 | 86 | 1006.5 |
| 20260505055912 | 16 | 0 | 0.0 | 1.6 | 0.00 | 0.00 | 0.00 | 86 | 1006.6 |
| 20260505055411 | 16 | 333 | 0.0 | 1.6 | 0.00 | 0.00 | 0.00 | 85 | 1006.7 |
| 20260505054911 | 16 | 0 | 0.0 | 1.6 | 0.00 | 0.00 | 0.00 | 85 | 1006.7 |
| 20260505054412 | 16 | 358 | 0.0 | 3.2 | 0.00 | 0.00 | 0.00 | 85 | 1006.6 |
| 20260505053911 | 16 | 331 | 1.6 | 3.2 | 0.00 | 0.00 | 0.00 | 86 | 1006.6 |
| 20260505053411 | 15 | 330 | 0.0 | 3.2 | 0.00 | 0.00 | 0.00 | 85 | 1006.6 |
| 20260505052912 | 15 | 332 | 0.0 | 3.2 | 0.00 | 0.00 | 0.00 | 85 | 1006.6 |
| 20260505052412 | 16 | 339 | 1.6 | 3.2 | 0.00 | 0.00 | 0.00 | 85 | 1006.3 |
| 20260505051912 | 16 | 345 | 1.6 | 1.6 | 0.00 | 0.00 | 0.00 | 84 | 1006.2 |
| 20260505051411 | 16 | 327 | 0.0 | 1.6 | 0.00 | 0.00 | 0.00 | 84 | 1006.2 |
| 20260505050912 | 16 | 0 | 0.0 | 1.6 | 0.00 | 0.00 | 0.00 | 84 | 1006.3 |
| 20260505050413 | 15 | 1 | 0.0 | 3.2 | 0.00 | 0.00 | 0.00 | 84 | 1006.4 |
| 20260505041411 | 16 | 0 | 0.0 | 1.6 | 0.00 | 0.00 | 0.00 | 83 | 1006.9 |
| 20260505040913 | 16 | 0 | 0.0 | 3.2 | 0.00 | 0.00 | 0.00 | 82 | 1007.0 |
| 20260505040411 | 16 | 329 | 0.0 | 3.2 | 0.00 | 0.00 | 0.00 | 80 | 1007.1 |
| 20260505035911 | 16 | 319 | 0.0 | 3.2 | 0.00 | 0.00 | 0.00 | 80 | 1007.2 |
| 20260505035413 | 16 | 353 | 1.6 | 3.2 | 0.00 | 0.00 | 0.00 | 80 | 1007.2 |
| 20260505034912 | 17 | 0 | 0.0 | 3.2 | 0.00 | 0.00 | 0.00 | 79 | 1007.2 |
| 20260505034411 | 17 | 0 | 0.0 | 0.0 | 0.00 | 0.00 | 0.00 | 79 | 1007.2 |
| 20260505033912 | 17 | 0 | 0.0 | 3.2 | 0.00 | 0.00 | 0.00 | 78 | 1007.2 |
| 20260505033411 | 17 | 347 | 3.2 | 3.2 | 0.00 | 0.00 | 0.00 | 78 | 1007.3 |
| 20260505032911 | 17 | 0 | 0.0 | 3.2 | 0.00 | 0.00 | 0.00 | 78 | 1007.2 |
| 20260505032412 | 17 | 0 | 0.0 | 3.2 | 0.00 | 0.00 | 0.00 | 78 | 1007.3 |
| 20260505031911 | 17 | 0 | 0.0 | 1.6 | 0.00 | 0.00 | 0.00 | 78 | 1007.4 |
| 20260505031412 | 17 | 0 | 0.0 | 3.2 | 0.00 | 0.00 | 0.00 | 78 | 1007.4 |
| 20260505030911 | 17 | 344 | 1.6 | 3.2 | 0.00 | 0.00 | 0.00 | 78 | 1007.3 |
| 20260505030411 | 17 | 351 | 1.6 | 3.2 | 0.00 | 0.00 | 0.00 | 77 | 1007.3 |
| 20260505025911 | 17 | 343 | 1.6 | 3.2 | 0.00 | 0.00 | 0.00 | 76 | 1007.3 |
| 20260505025411 | 17 | 356 | 0.0 | 3.2 | 0.00 | 0.00 | 0.00 | 76 | 1007.3 |
| 20260505024911 | 17 | 352 | 1.6 | 3.2 | 0.00 | 0.00 | 0.00 | 75 | 1007.3 |
| 20260505024411 | 17 | 0 | 0.0 | 1.6 | 0.00 | 0.00 | 0.00 | 75 | 1007.3 |
| 20260505023912 | 18 | 0 | 0.0 | 1.6 | 0.00 | 0.00 | 0.00 | 74 | 1007.2 |
| 20260505023412 | 18 | 0 | 0.0 | 3.2 | 0.00 | 0.00 | 0.00 | 72 | 1007.3 |
| 20260505022912 | 18 | 275 | 0.0 | 3.2 | 0.00 | 0.00 | 0.00 | 72 | 1007.3 |
| 20260505022412 | 18 | 320 | 0.0 | 3.2 | 0.00 | 0.00 | 0.00 | 71 | 1007.3 |
| 20260505021911 | 19 | 252 | 0.0 | 0.0 | 0.00 | 0.00 | 0.00 | 71 | 1007.1 |
| 20260505021411 | 19 | 0 | 0.0 | 0.0 | 0.00 | 0.00 | 0.00 | 69 | 1007.0 |
| 20260505020912 | 20 | 191 | 0.0 | 1.6 | 0.00 | 0.00 | 0.00 | 68 | 1006.9 |
| 20260505020412 | 20 | 0 | 0.0 | 3.2 | 0.00 | 0.00 | 0.00 | 67 | 1006.8 |
| 20260505015912 | 20 | 11 | 0.0 | 3.2 | 0.00 | 0.00 | 0.00 | 65 | 1006.8 |
| 20260505015411 | 20 | 12 | 0.0 | 4.8 | 0.00 | 0.00 | 0.00 | 64 | 1006.7 |
| 20260505014911 | 21 | 147 | 0.0 | 4.8 | 0.00 | 0.00 | 0.00 | 63 | 1006.6 |
| 20260505014411 | 21 | 0 | 0.0 | 4.8 | 0.00 | 0.00 | 0.00 | 62 | 1006.5 |
| 20260505013912 | 21 | 0 | 0.0 | 6.4 | 0.00 | 0.00 | 0.00 | 62 | 1006.4 |
| 20260505013412 | 21 | 117 | 3.2 | 6.4 | 0.00 | 0.00 | 0.00 | 62 | 1006.4 |
| 20260505012912 | 21 | 132 | 0.0 | 4.8 | 0.00 | 0.00 | 0.00 | 62 | 1006.3 |
| 20260505012411 | 21 | 342 | 1.6 | 6.4 | 0.00 | 0.00 | 0.00 | 61 | 1006.3 |
| 20260505011914 | 21 | 355 | 0.0 | 6.4 | 0.00 | 0.00 | 0.00 | 61 | 1006.3 |
| 20260505011413 | 21 | 17 | 3.2 | 8.0 | 0.00 | 0.00 | 0.00 | 61 | 1006.3 |
| 20260505010912 | 21 | 90 | 0.0 | 6.4 | 0.00 | 0.00 | 0.00 | 62 | 1006.1 |
| 20260505010412 | 21 | 53 | 1.6 | 8.0 | 0.00 | 0.00 | 0.00 | 62 | 1006.0 |
| 20260505005913 | 21 | 135 | 1.6 | 8.0 | 0.00 | 0.00 | 0.00 | 62 | 1006.0 |
| 20260505005411 | 21 | 170 | 4.8 | 6.4 | 0.00 | 0.00 | 0.00 | 63 | 1005.9 |
| 20260505004911 | 22 | 158 | 3.2 | 4.8 | 0.00 | 0.00 | 0.00 | 61 | 1005.9 |
| 20260505004415 | 22 | 53 | 1.6 | 4.8 | 0.00 | 0.00 | 0.00 | 61 | 1005.9 |
| 20260505003913 | 22 | 138 | 1.6 | 6.4 | 0.00 | 0.00 | 0.00 | 61 | 1005.8 |
| 20260505003412 | 22 | 177 | 0.0 | 3.2 | 0.00 | 0.00 | 0.00 | 61 | 1005.8 |
| 20260505002914 | 23 | 158 | 0.0 | 4.8 | 0.00 | 0.00 | 0.00 | 59 | 1005.6 |
| 20260505002411 | 23 | 146 | 1.6 | 6.4 | 0.00 | 0.00 | 0.00 | 57 | 1005.6 |
| 20260505001911 | 23 | 145 | 3.2 | 8.0 | 0.00 | 0.00 | 0.00 | 55 | 1005.5 |
| 20260505001411 | 23 | 58 | 3.2 | 8.0 | 0.00 | 0.00 | 0.00 | 55 | 1005.5 |
| 20260505000911 | 23 | 120 | 3.2 | 16.1 | 0.00 | 0.00 | 0.00 | 55 | 1005.5 |
| 20260505000413 | 23 | 8 | 6.4 | 16.1 | 0.00 | 0.00 | 0.00 | 54 | 1005.6 |
| 20260504235912 | 24 | 117 | 3.2 | 9.7 | 0.00 | 0.00 | 0.00 | 54 | 1005.5 |
| 20260504235412 | 24 | 47 | 3.2 | 8.0 | 0.00 | 0.00 | 0.00 | 54 | 1005.5 |
| 20260504234912 | 24 | 109 | 3.2 | 8.0 | 0.00 | 0.00 | 0.00 | 53 | 1005.5 |
| 20260504234412 | 24 | 40 | 3.2 | 9.7 | 0.00 | 0.00 | 0.00 | 53 | 1005.3 |
| 20260504233912 | 24 | 155 | 6.4 | 14.5 | 0.00 | 0.00 | 0.00 | 52 | 1005.3 |
| 20260504233411 | 24 | 82 | 3.2 | 12.9 | 0.00 | 0.00 | 0.00 | 52 | 1005.5 |
| 20260504232911 | 25 | 125 | 1.6 | 9.7 | 0.00 | 0.00 | 0.00 | 51 | 1005.6 |
| 20260504232411 | 25 | 91 | 4.8 | 16.1 | 0.00 | 0.00 | 0.00 | 51 | 1005.6 |
| 20260504231912 | 25 | 141 | 6.4 | 16.1 | 0.00 | 0.00 | 0.00 | 51 | 1005.3 |
| 20260504231411 | 25 | 44 | 4.8 | 14.5 | 0.00 | 0.00 | 0.00 | 50 | 1005.5 |
| 20260504230912 | 25 | 340 | 3.2 | 12.9 | 0.00 | 0.00 | 0.00 | 51 | 1005.5 |
| 20260504230411 | 25 | 157 | 4.8 | 11.3 | 0.00 | 0.00 | 0.00 | 51 | 1005.5 |
| 20260504221912 | 26 | 331 | 9.7 | 14.5 | 0.00 | 0.00 | 0.00 | 45 | 1005.8 |
| 20260504221411 | 26 | 141 | 6.4 | 14.5 | 0.00 | 0.00 | 0.00 | 47 | 1006.0 |
| 20260504220911 | 27 | 38 | 6.4 | 11.3 | 0.00 | 0.00 | 0.00 | 46 | 1006.0 |
| 20260504210414 | 27 | 0 | 6.4 | 12.9 | 0.00 | 0.00 | 0.00 | 44 | 1006.2 |
| 20260504205412 | 27 | 346 | 11.3 | 17.7 | 0.00 | 0.00 | 0.00 | 44 | 1006.3 |
| 20260504204412 | 27 | 315 | 6.4 | 20.9 | 0.00 | 0.00 | 0.00 | 44 | 1006.3 |
| 20260504203411 | 27 | 233 | 11.3 | 19.3 | 0.00 | 0.00 | 0.00 | 43 | 1006.5 |
| 20260504202914 | 27 | 294 | 8.0 | 19.3 | 0.00 | 0.00 | 0.00 | 44 | 1006.6 |
| 20260504202413 | 27 | 303 | 9.7 | 17.7 | 0.00 | 0.00 | 0.00 | 43 | 1006.6 |
| 20260504201912 | 27 | 184 | 6.4 | 19.3 | 0.00 | 0.00 | 0.00 | 44 | 1006.6 |
| 20260504201412 | 27 | 0 | 6.4 | 14.5 | 0.00 | 0.00 | 0.00 | 45 | 1006.6 |
| 20260504200912 | 27 | 37 | 4.8 | 17.7 | 0.00 | 0.00 | 0.00 | 44 | 1006.8 |
| 20260504200414 | 27 | 218 | 8.0 | 17.7 | 0.00 | 0.00 | 0.00 | 44 | 1006.7 |
| 20260504195911 | 27 | 42 | 6.4 | 16.1 | 0.00 | 0.00 | 0.00 | 44 | 1006.9 |
| 20260504195412 | 27 | 69 | 8.0 | 20.9 | 0.00 | 0.00 | 0.00 | 44 | 1006.7 |
| 20260504194913 | 27 | 314 | 11.3 | 20.9 | 0.00 | 0.00 | 0.00 | 45 | 1006.8 |
| 20260504194414 | 27 | 87 | 6.4 | 14.5 | 0.00 | 0.00 | 0.00 | 44 | 1006.8 |
| 20260504193914 | 27 | 303 | 8.0 | 16.1 | 0.00 | 0.00 | 0.00 | 44 | 1007.0 |
| 20260504184913 | 27 | 264 | 8.0 | 19.3 | 0.00 | 0.00 | 0.00 | 45 | 1007.4 |
| 20260504184413 | 27 | 271 | 8.0 | 19.3 | 0.00 | 0.00 | 0.00 | 46 | 1007.3 |
| 20260504183413 | 27 | 126 | 9.7 | 20.9 | 0.00 | 0.00 | 0.00 | 45 | 1007.4 |
| 20260504182914 | 27 | 132 | 8.0 | 17.7 | 0.00 | 0.00 | 0.00 | 45 | 1007.4 |
| 20260504182413 | 26 | 211 | 8.0 | 17.7 | 0.00 | 0.00 | 0.00 | 45 | 1007.7 |
| 20260504181914 | 26 | 111 | 4.8 | 17.7 | 0.00 | 0.00 | 0.00 | 47 | 1007.7 |
| 20260504181412 | 26 | 116 | 8.0 | 19.3 | 0.00 | 0.00 | 0.00 | 46 | 1007.7 |
| 20260504180914 | 26 | 161 | 9.7 | 16.1 | 0.00 | 0.00 | 0.00 | 47 | 1007.9 |
| 20260504180413 | 27 | 147 | 8.0 | 16.1 | 0.00 | 0.00 | 0.00 | 46 | 1007.8 |
| 20260504175913 | 26 | 78 | 8.0 | 16.1 | 0.00 | 0.00 | 0.00 | 46 | 1007.7 |
| 20260504175413 | 26 | 299 | 8.0 | 14.5 | 0.00 | 0.00 | 0.00 | 46 | 1007.9 |
| 20260504174913 | 26 | 190 | 9.7 | 19.3 | 0.00 | 0.00 | 0.00 | 46 | 1007.9 |
| 20260504174413 | 26 | 113 | 9.7 | 22.5 | 0.00 | 0.00 | 0.00 | 46 | 1007.9 |
| 20260504173913 | 26 | 251 | 8.0 | 24.1 | 0.00 | 0.00 | 0.00 | 46 | 1008.2 |
| 20260504173413 | 26 | 329 | 6.4 | 19.3 | 0.00 | 0.00 | 0.00 | 45 | 1008.1 |
| 20260504172913 | 26 | 68 | 6.4 | 16.1 | 0.00 | 0.00 | 0.00 | 45 | 1008.1 |
| 20260504172411 | 26 | 44 | 4.8 | 17.7 | 0.00 | 0.00 | 0.00 | 45 | 1008.0 |
| 20260504171915 | 26 | 304 | 9.7 | 17.7 | 0.00 | 0.00 | 0.00 | 46 | 1008.0 |
| 20260504171413 | 26 | 129 | 8.0 | 20.9 | 0.00 | 0.00 | 0.00 | 46 | 1008.2 |
| 20260504170914 | 25 | 84 | 6.4 | 16.1 | 0.00 | 0.00 | 0.00 | 47 | 1008.0 |
| 20260504170414 | 25 | 248 | 9.7 | 19.3 | 0.00 | 0.00 | 0.00 | 46 | 1008.1 |
| 20260504160412 | 25 | 323 | 3.2 | 19.3 | 0.00 | 0.00 | 0.00 | 48 | 1008.8 |